Wind_Speed
61 62 60 60 60 61 61 61 63 65 64 65 67 67 69 68 70 70 72 75 76 71 72 73 71 70 68 67 67 62 59 56 50 49 48 47 46 45 44 44 41 42 43
65 65 66 65 65 65 66 67 67 67 66 68 71 71 71 69 65 66 59 60 58 53 48 48 51 54 53 51 50 46 44 43 39 37 35 36 36 36 36 36 35 35 37
55 54 61 65 67 68 66 67 67 66 61 57 53 52 48 43 42 38 36 37 39 38 37 38 38 39 41 42 41 40 38 35 33 30 30 32 30 30 30 33 29 31 32
40 42 46 40 40 43 42 41 42 43 42 42 37 33 32 31 31 32 33 33 35 36 35 35 34 34 36 37 37 37 35 34 32 31 29 30 29 28 27 27 25 26 26
32 33 28 29 32 32 34 34 35 33 30 30 29 29 27 26 27 29 31 32 32 33 34 35 36 36 36 34 33 32 30 28 24 23 23 24 26 26 26 24 25 25 25
33 33 32 33 33 31 31 32 31 29 28 29 31 32 30 30 30 30 31 32 34 35 33 34 34 32 30 26 24 21 22 22 24 25 25 24 22 24 25 24 24 25 26
34 34 34 37 36 35 33 32 32 33 32 32 33 33 33 33 35 36 39 40 39 36 35 37 36 33 29 27 26 26 27 27 27 27 25 26 27 26 24 24 24 22 22
36 36 36 37 38 38 38 37 35 36 39 38 40 39 38 39 40 41 42 41 40 41 38 37 36 33 31 32 30 29 29 28 26 23 22 24 26 28 28 25 25 26 24
33 33 35 36 39 41 41 41 41 39 40 42 43 44 43 44 44 47 45 44 43 39 40 40 39 36 33 34 34 32 30 28 26 27 27 27 30 31 30 30 28 27 28
39 38 36 37 38 40 43 45 45 44 44 46 48 48 50 50 50 51 50 47 45 42 40 40 40 40 40 38 38 37 37 36 34 33 33 31 35 37 34 32 31 30 29
45 44 43 43 41 41 41 43 45 49 50 49 48 49 50 51 52 51 47 40 41 41 42 42 42 43 42 38 39 42 42 39 41 42 37 35 34 37 32 34 32 32 32
44 45 46 46 46 45 44 44 44 44 45 47 50 51 51 51 50 50 50 47 42 37 38 40 43 43 44 43 42 41 44 43 45 43 41 37 35 37 37 34 35 35 35
40 42 43 44 46 46 45 46 47 47 46 45 46 47 49 50 51 51 52 51 50 49 49 50 46 42 43 41 41 42 43 44 46 47 47 43 38 37 35 34 35 36 37
39 37 38 40 42 43 46 49 51 51 51 50 49 49 48 48 48 49 50 51 53 53 55 56 57 55 51 48 47 46 48 46 45 48 48 51 45 40 37 35 34 35 35
36 36 35 35 37 39 41 43 44 46 48 51 54 55 55 54 54 54 55 55 55 56 57 59 60 61 60 59 59 58 55 53 52 53 49 48 47 43 40 40 37 37 36
43 43 40 40 40 41 44 43 42 42 44 45 46 49 52 54 56 58 59 61 63 64 65 65 65 65 66 65 66 67 66 64 62 57 57 54 54 47 46 42 39 36 33
47 47 48 48 47 48 47 48 48 47 49 48 49 52 53 54 56 58 59 60 62 65 70 71 72 73 73 73 72 72 72 73 71 68 65 60 55 55 55 52 43 37 30
51 53 55 56 57 55 55 54 54 55 56 58 57 57 58 59 61 61 64 66 68 68 68 69 74 77 78 78 76 76 76 77 77 75 70 72 68 63 60 55 52 42 33
55 56 58 59 59 61 61 62 64 64 65 66 67 67 68 69 70 70 69 70 73 74 74 75 75 74 78 83 82 81 79 79 81 81 78 74 71 68 64 60 54 48 41
55 57 59 60 61 64 66 68 70 71 72 73 74 75 76 77 78 79 81 81 80 80 82 82 81 83 82 82 81 86 85 83 82 81 80 80 77 73 71 62 56 54 47
59 61 63 64 65 67 69 71 73 75 77 79 81 82 83 85 86 86 87 88 87 87 87 87 87 87 90 89 88 85 87 88 89 88 85 82 80 77 75 70 65 59 55
63 64 67 68 70 72 76 77 78 82 84 87 88 90 91 92 93 95 96 96 95 95 93 91 89 90 91 92 92 92 91 92 92 90 90 87 85 82 79 74 75 69 58
69 70 73 76 77 80 81 82 85 88 91 93 95 96 97 99 100 102 102 102 101 99 97 94 92 92 92 95 94 92 93 95 97 97 94 93 89 86 84 76 71 73 67
74 77 78 81 83 86 87 88 92 96 98 100 102 103 105 105 106 106 107 105 101 99 97 97 97 96 95 94 98 98 94 94 98 98 103 100 95 93 89 85 76 73 73
80 82 85 87 89 91 92 95 100 103 106 109 110 110 109 111 112 111 109 104 100 98 98 97 96 96 94 93 93 95 97 94 97 97 101 109 104 98 96 92 88 81 80
86 88 91 92 92 95 99 102 107 111 113 115 116 115 118 116 115 110 109 105 101 100 99 97 94 91 90 91 92 95 96 99 100 99 98 103 110 108 101 96 94 92 85
Wind_Direction
275 276 276 274 274 277 278 278 278 279 277 277 279 280 281 280 279 277 275 276 278 281 280 278 281 279 279 279 278 280 281 282 283 284 285 285 285 284 284 282 281 278 279
269 273 274 275 276 277 279 279 280 280 279 279 280 282 281 283 285 284 281 279 278 282 282 282 281 279 279 279 279 279 281 283 285 286 288 287 286 285 284 283 282 279 278
273 275 276 274 275 275 277 279 280 283 282 283 283 285 282 281 282 286 286 284 282 282 285 286 288 288 286 282 284 285 285 283 284 282 284 284 285 285 284 282 280 279 279
268 272 278 279 284 282 284 283 284 287 290 287 285 284 286 288 292 292 291 290 288 286 285 285 285 286 286 287 289 288 286 282 280 281 281 280 282 282 285 286 276 275 276
276 281 277 280 282 284 282 282 284 288 287 288 288 285 286 289 292 293 292 293 293 291 288 287 285 284 284 288 288 286 281 279 282 283 281 281 279 281 281 283 280 272 270
283 279 276 276 280 279 284 283 284 278 279 282 285 287 286 287 287 289 293 295 292 291 289 287 285 285 289 292 289 282 283 279 282 281 282 284 284 281 279 282 286 277 274
283 282 282 279 278 281 278 277 278 275 274 275 279 280 283 286 288 292 294 296 295 290 286 284 286 288 291 287 284 281 282 282 281 285 289 287 287 286 285 281 280 277 273
285 282 283 282 280 280 277 276 273 274 274 275 278 278 279 279 283 286 289 288 291 290 287 285 284 284 285 286 287 285 283 279 280 282 292 291 290 289 285 281 280 272 273
295 292 288 286 283 283 281 280 275 272 272 275 276 277 280 282 284 286 290 287 285 280 279 280 281 284 283 284 284 284 282 278 275 279 291 291 288 287 282 281 277 278 273
291 290 290 291 290 284 280 278 277 276 279 280 278 278 278 277 281 283 286 288 281 282 276 272 274 276 280 283 284 282 279 275 275 281 284 292 291 291 280 276 276 270 272
291 289 288 291 289 285 284 281 278 277 278 279 277 279 280 280 281 282 281 281 281 279 275 271 269 271 272 274 277 276 276 272 270 276 282 287 287 289 284 279 270 270 270
293 295 292 293 292 291 288 287 287 286 284 282 279 278 279 279 278 279 281 276 269 268 267 271 272 268 266 270 269 269 271 273 268 274 277 284 282 286 282 284 273 267 272
299 297 299 296 295 293 293 292 290 288 286 286 283 283 281 281 280 277 276 275 273 268 263 267 268 269 268 269 271 269 267 267 263 268 272 277 283 281 280 283 281 272 269
307 302 300 295 292 293 295 293 290 289 288 286 283 281 279 279 279 277 276 276 274 272 271 270 270 263 260 263 265 266 267 266 265 263 266 269 277 274 274 279 285 284 274
307 307 310 309 305 303 302 299 296 296 294 292 289 286 284 281 278 277 275 274 273 272 273 273 271 268 265 263 261 263 264 264 267 266 266 266 271 272 270 274 279 283 279
315 314 311 308 307 308 307 304 301 299 298 297 295 293 292 291 289 284 279 273 271 271 270 269 268 268 267 266 263 262 260 260 261 265 264 263 266 267 269 272 277 272 271
312 311 310 309 309 307 307 307 305 302 302 300 297 295 293 290 288 288 286 283 280 274 268 266 265 264 263 263 262 263 261 258 259 259 262 262 258 263 266 268 269 267 262
310 311 310 311 310 308 307 307 304 303 303 302 301 299 295 293 293 291 290 289 286 283 278 273 265 261 259 259 259 257 257 258 257 256 257 260 261 259 263 265 265 262 258
309 310 311 310 309 308 309 307 307 306 305 305 304 302 300 300 298 295 294 292 290 285 281 279 274 268 264 260 256 254 254 255 255 255 255 252 255 260 257 259 260 262 257
308 309 309 309 309 309 308 308 307 306 306 305 304 304 303 301 300 299 298 295 292 289 286 282 278 275 271 267 263 257 251 251 251 251 253 254 249 250 254 252 253 258 254
303 305 307 309 309 309 309 307 308 307 306 306 305 304 303 302 301 299 297 296 293 291 289 285 279 275 273 270 265 262 258 252 249 248 249 249 250 245 245 250 249 251 253
302 304 306 308 307 307 308 308 308 308 307 306 306 304 303 302 301 299 298 297 294 292 289 286 281 277 273 271 267 265 261 258 253 248 244 245 244 245 245 242 246 246 246
302 304 306 306 306 306 307 308 307 308 309 307 306 304 303 301 300 300 298 296 295 292 289 286 282 278 276 275 271 266 263 260 258 256 248 243 242 240 240 237 237 237 236
301 305 305 306 306 307 307 306 306 307 308 308 306 305 303 302 301 300 299 297 295 292 290 288 285 282 277 274 273 270 266 261 259 255 254 250 242 239 237 236 233 235 233
302 304 304 306 307 307 307 306 307 307 307 308 307 306 305 304 303 301 300 297 295 293 291 289 286 283 280 276 272 270 268 264 262 256 252 251 249 240 237 233 231 231 230
302 303 304 305 306 306 306 306 307 307 307 307 308 309 307 307 305 303 301 298 296 295 293 291 288 284 281 277 273 269 268 266 263 258 254 252 252 251 240 233 229 227 225
Height
10832 10828 10827 10827 10825 10824 10822 10822 10821 10821 10822 10820 10816 10814 10811 10808 10806 10804 10803 10800 10795 10792 10791 10790 10787 10786 10784 10781 10779 10776 10774 10772 10770 10769 10767 10764 10763 10762 10759 10757 10757 10753 10752
10821 10818 10816 10817 10816 10815 10813 10811 10810 10810 10810 10808 10805 10802 10799 10795 10792 10790 10788 10786 10783 10780 10779 10777 10776 10774 10773 10771 10769 10767 10765 10763 10761 10759 10759 10756 10754 10753 10752 10750 10749 10746 10746
10813 10810 10809 10808 10806 10804 10802 10799 10798 10797 10796 10795 10792 10789 10786 10783 10781 10779 10777 10775 10773 10771 10770 10768 10768 10766 10765 10764 10762 10760 10758 10756 10754 10753 10753 10749 10749 10747 10746 10744 10742 10741 10740
10805 10803 10804 10800 10797 10794 10792 10791 10788 10787 10785 10784 10783 10782 10779 10776 10774 10771 10770 10767 10765 10764 10762 10761 10760 10758 10758 10757 10755 10753 10751 10750 10748 10747 10746 10744 10742 10741 10740 10739 10737 10735 10735
10800 10798 10796 10794 10792 10790 10788 10785 10782 10780 10778 10776 10774 10773 10771 10770 10768 10766 10764 10762 10759 10757 10756 10755 10753 10752 10751 10750 10748 10747 10746 10745 10743 10741 10740 10737 10737 10736 10734 10734 10732 10730 10729
10795 10793 10790 10789 10786 10784 10782 10779 10777 10774 10772 10770 10769 10767 10766 10764 10762 10759 10757 10755 10754 10752 10751 10748 10746 10746 10745 10744 10743 10742 10741 10741 10739 10737 10735 10733 10732 10730 10729 10729 10727 10726 10725
10787 10786 10784 10782 10780 10778 10775 10773 10771 10769 10766 10764 10763 10761 10759 10758 10756 10754 10751 10749 10747 10746 10745 10743 10741 10740 10740 10739 10738 10736 10735 10735 10733 10732 10731 10730 10727 10725 10724 10723 10722 10721 10720
10780 10778 10776 10774 10772 10770 10768 10766 10765 10763 10760 10758 10757 10756 10753 10752 10751 10749 10747 10745 10742 10740 10738 10737 10735 10734 10734 10733 10732 10731 10730 10728 10728 10726 10725 10724 10722 10721 10719 10717 10717 10716 10716
10772 10769 10767 10764 10763 10762 10759 10757 10756 10755 10753 10751 10749 10748 10746 10744 10743 10741 10740 10739 10735 10733 10731 10729 10728 10727 10727 10726 10725 10724 10723 10722 10721 10719 10719 10718 10716 10714 10713 10712 10711 10710 10710
10763 10760 10759 10758 10756 10753 10751 10749 10747 10745 10743 10742 10741 10739 10738 10737 10736 10734 10731 10729 10727 10725 10724 10723 10721 10720 10719 10718 10717 10716 10716 10715 10714 10713 10712 10711 10709 10707 10705 10705 10704 10703 10703
10753 10752 10750 10748 10747 10746 10743 10740 10738 10737 10736 10734 10731 10729 10726 10725 10724 10724 10723 10719 10717 10716 10714 10714 10713 10712 10712 10712 10710 10709 10707 10707 10706 10705 10704 10703 10702 10700 10698 10697 10696 10696 10695
10744 10743 10740 10739 10737 10735 10732 10731 10729 10727 10725 10723 10720 10718 10715 10713 10712 10711 10710 10710 10710 10706 10705 10703 10701 10702 10702 10703 10702 10701 10699 10698 10697 10697 10696 10695 10695 10693 10692 10689 10688 10688 10688
10735 10733 10731 10729 10727 10724 10722 10720 10717 10715 10713 10712 10710 10707 10704 10701 10700 10699 10699 10697 10697 10696 10696 10695 10693 10692 10691 10691 10690 10691 10689 10687 10688 10688 10687 10685 10687 10685 10684 10682 10681 10679 10679
10728 10725 10723 10720 10717 10715 10713 10711 10707 10704 10702 10699 10696 10694 10692 10690 10688 10686 10684 10683 10683 10682 10681 10681 10680 10680 10680 10679 10678 10677 10676 10677 10677 10677 10678 10675 10677 10677 10676 10675 10674 10672 10671
10722 10719 10716 10714 10711 10709 10705 10701 10698 10695 10691 10688 10685 10683 10681 10679 10677 10674 10673 10670 10669 10667 10666 10666 10666 10665 10666 10666 10665 10666 10667 10665 10665 10666 10666 10668 10666 10666 10667 10667 10667 10665 10664
10714 10711 10709 10706 10703 10701 10697 10693 10690 10686 10682 10679 10676 10672 10668 10664 10660 10659 10658 10657 10655 10653 10651 10650 10649 10648 10648 10650 10650 10651 10651 10652 10651 10651 10652 10656 10655 10656 10656 10657 10658 10657 10656
10705 10702 10699 10696 10693 10690 10687 10684 10680 10676 10673 10670 10666 10662 10658 10654 10649 10645 10642 10639 10638 10637 10635 10633 10631 10631 10630 10630 10632 10632 10634 10635 10636 10636 10637 10640 10645 10643 10644 10646 10648 10648 10649
10695 10691 10688 10684 10680 10677 10674 10670 10666 10662 10659 10655 10651 10648 10644 10639 10635 10631 10627 10623 10619 10617 10615 10613 10612 10610 10609 10609 10610 10612 10613 10613 10617 10619 10622 10622 10624 10630 10631 10634 10636 10639 10639
10684 10680 10676 10672 10669 10665 10661 10656 10651 10647 10643 10638 10634 10630 10625 10621 10616 10612 10608 10604 10599 10596 10593 10591 10588 10588 10587 10587 10588 10589 10590 10593 10594 10596 10600 10605 10608 10610 10617 10621 10624 10627 10630
10673 10669 10665 10661 10657 10652 10647 10642 10637 10632 10628 10623 10618 10612 10608 10603 10597 10592 10588 10583 10578 10573 10569 10566 10564 10561 10561 10563 10565 10565 10567 10568 10570 10574 10577 10581 10588 10592 10596 10604 10609 10613 10616
10661 10657 10653 10648 10643 10638 10633 10628 10623 10618 10612 10606 10600 10594 10588 10583 10578 10572 10566 10560 10554 10548 10543 10540 10538 10535 10529 10530 10535 10539 10541 10541 10545 10543 10554 10559 10564 10571 10577 10583 10592 10599 10602
10649 10644 10640 10635 10629 10624 10618 10613 10606 10600 10594 10588 10581 10575 10568 10560 10553 10545 10538 10531 10525 10519 10514 10510 10508 10506 10501 10499 10503 10508 10512 10513 10514 10519 10522 10530 10536 10546 10555 10563 10569 10579 10586
10634 10630 10626 10620 10615 10609 10603 10596 10589 10582 10576 10568 10560 10552 10544 10535 10527 10518 10510 10502 10494 10488 10482 10478 10474 10473 10472 10466 10467 10473 10478 10483 10485 10485 10494 10500 10510 10518 10525 10538 10545 10555 10567
10621 10616 10610 10605 10599 10593 10586 10578 10571 10564 10555 10547 10538 10528 10518 10508 10498 10489 10480 10472 10464 10456 10449 10444 10438 10436 10436 10436 10429 10429 10439 10446 10451 10464 10456 10466 10478 10488 10499 10512 10527 10535 10546
10607 10601 10595 10589 10583 10576 10568 10560 10552 10543 10534 10525 10514 10502 10491 10479 10468 10457 10448 10440 10433 10426 10418 10412 10404 10399 10396 10395 10396 10396 10399 10406 10409 10421 10437 10428 10440 10455 10466 10482 10495 10509 10516
10590 10584 10577 10571 10564 10557 10549 10541 10532 10522 10511 10500 10488 10476 10463 10450 10437 10426 10416 10407 10399 10392 10384 10377 10371 10365 10362 10358 10357 10357 10362 10365 10370 10379 10395 10405 10407 10414 10433 10451 10467 10478 10490